Location: Buffign�court
(47.8126°N, 6.0176°E)
Time: 15:11:42
(UTC+00:00)

Cosmos 2228 - Pass Details

Date: 16 June 2021
Orbit: 588 x 618 km, 82.5° (Epoch: 31 July)

Event Time Altitude Azimuth Distance (km) Brightness Sun altitude
Rises 22:53:08 0° 344° (NNW) 2,904 8.2 -18.1°
Reaches altitude 10° 22:55:27 10° 337° (NNW) 1,995 6.8 -18.2°
Maximum altitude 22:59:35 40° 268° (W) 925 4.0 -18.3°
Enters shadow 23:01:21 27° 220° (SW) 1,196 4.1 -18.4°
